DW7259 Weather Reports


Display with metric or nautical units.
time (UTC)temp
F
wind
direction
speed
MPH
gust
MPH
rain 1hr
in
rain 24hr
in
rain mn
in
humidity
%
barometer
mb
20260831013029 81 360 3.0 6.0 0.00 0.00 0.00 21 1003.8
20260831011534 82 360 3.0 6.0 0.00 0.00 0.00 20 1003.9
20260831010027 83 360 3.0 8.0 0.00 0.00 0.00 19 1004.0
20260831004528 83 171 2.0 11.0 0.00 0.00 0.00 18 1004.1
20260831003025 83 360 2.0 6.0 0.00 0.00 0.00 18 1004.0
20260831001524 81 330 1.0 6.0 0.00 0.00 0.00 20 1004.2
20260831000024 81 330 1.0 7.0 0.00 0.00 0.00 21 1004.2
20260830234523 81 330 1.0 3.0 0.00 0.00 0.00 19 1004.2
20260830233025 82 330 0.0 4.0 0.00 0.00 0.00 19 1004.4
20260830231520 82 330 1.0 4.0 0.00 0.00 0.00 19 1004.4
20260830230022 83 330 2.0 7.0 0.00 0.00 0.00 19 1004.6
20260830224517 83 330 1.0 8.0 0.00 0.00 0.00 18 1004.8
20260830223015 83 330 0.0 5.0 0.00 0.00 0.00 18 1005.0
20260830221514 82 330 2.0 8.0 0.00 0.00 0.00 18 1005.2
20260830220018 82 330 3.0 7.0 0.00 0.00 0.00 19 1005.6
20260830214507 82 330 2.0 7.0 0.00 0.00 0.00 19 1005.8
20260830213006 82 330 1.0 5.0 0.00 0.00 0.00 19 1006.0
20260830211504 83 330 0.0 7.0 0.00 0.00 0.00 19 1006.3
20260830210106 82 330 0.0 3.0 0.00 0.00 0.00 22 1006.4
20260830204556 81 330 3.0 6.0 0.00 0.00 0.00 20 1006.6
20260830203055 80 330 2.0 7.0 0.00 0.00 0.00 21 1006.7
20260830201551 79 331 0.0 4.0 0.00 0.00 0.00 23 1006.8
20260830200050 79 333 4.0 7.0 0.00 0.00 0.00 23 1006.9
20260830194546 77 333 2.0 11.0 0.00 0.00 0.00 22 1007.1
20260830193048 77 355 2.0 6.0 0.00 0.00 0.00 24 1007.3
20260830191546 76 355 1.0 7.0 0.00 0.00 0.00 27 1007.6
20260830190038 74 355 1.0 7.0 0.00 0.00 0.00 27 1007.8
20260830184534 75 5 2.0 8.0 0.00 0.00 0.00 26 1007.9
20260830183030 74 10 1.0 6.0 0.00 0.00 0.00 28 1008.1
20260830181526 73 23 1.0 6.0 0.00 0.00 0.00 28 1008.3
20260830180039 71 41 1.0 5.0 0.00 0.00 0.00 31 1008.4
20260830174522 70 43 2.0 5.0 0.00 0.00 0.00 30 1008.5
20260830173013 69 43 0.0 4.0 0.00 0.00 0.00 35 1008.5
20260830171509 67 43 0.0 3.0 0.00 0.00 0.00 34 1008.5
20260830170005 65 43 1.0 4.0 0.00 0.00 0.00 37 1008.6
20260830164619 63 43 0.0 4.0 0.00 0.00 0.00 43 1008.6
20260830163057 62 43 0.0 4.0 0.00 0.00 0.00 44 1008.6
20260830161604 62 43 0.0 4.0 0.00 0.00 0.00 47 1008.7
20260830160052 61 43 0.0 3.0 0.00 0.00 0.00 45 1008.6
20260830154548 60 43 0.0 1.0 0.00 0.00 0.00 46 1008.7
20260830153044 59 43 0.0 2.0 0.00 0.00 0.00 51 1008.9
20260830151539 58 43 0.0 3.0 0.00 0.00 0.00 48 1008.9
20260830150038 56 43 2.0 4.0 0.00 0.00 0.00 53 1008.8
20260830144532 53 43 1.0 5.0 0.00 0.00 0.00 59 1008.8
20260830143031 51 43 0.0 0.0 0.00 0.00 0.00 61 1008.7
20260830141538 50 43 0.0 2.0 0.00 0.00 0.00 61 1008.6
20260830140024 50 43 0.0 0.0 0.00 0.00 0.00 59 1008.3
20260830134521 50 43 0.0 0.0 0.00 0.00 0.00 65 1008.2
20260830133018 50 43 0.0 0.0 0.00 0.00 0.00 59 1008.2
20260830131521 50 43 0.0 0.0 0.00 0.00 0.00 56 1008.1
20260830130021 51 43 0.0 0.0 0.00 0.00 0.00 55 1008.0
20260830124512 51 43 0.0 0.0 0.00 0.00 0.00 55 1007.9
20260830123021 52 43 0.0 0.0 0.00 0.00 0.00 54 1007.8
20260830121512 51 43 0.0 2.0 0.00 0.00 0.00 53 1007.8
20260830120010 51 43 0.0 4.0 0.00 0.00 0.00 54 1007.6
20260830114515 52 43 0.0 0.0 0.00 0.00 0.00 54 1007.5
20260830113005 52 43 0.0 0.0 0.00 0.00 0.00 53 1007.5
20260830111505 52 43 0.0 3.0 0.00 0.00 0.00 53 1007.5
20260830110004 52 43 0.0 5.0 0.00 0.00 0.00 54 1007.4
20260830104501 52 43 0.0 1.0 0.00 0.00 0.00 54 1007.3
20260830103100 53 43 0.0 0.0 0.00 0.00 0.00 54 1007.3
20260830101609 53 43 0.0 1.0 0.00 0.00 0.00 52 1007.2
20260830100057 53 43 0.0 2.0 0.00 0.00 0.00 52 1007.2
20260830094554 54 43 0.0 2.0 0.00 0.00 0.00 51 1007.1
20260830093052 54 43 0.0 3.0 0.00 0.00 0.00 49 1007.0
20260830091550 54 43 0.0 0.0 0.00 0.00 0.00 48 1007.0
20260830090059 55 43 0.0 2.0 0.00 0.00 0.00 48 1006.8
20260830084546 56 43 0.0 3.0 0.00 0.00 0.00 46 1006.8
20260830083042 56 43 0.0 5.0 0.00 0.00 0.00 45 1006.8
20260830081542 56 43 0.0 5.0 0.00 0.00 0.00 43 1006.6
20260830080036 57 43 0.0 0.0 0.00 0.00 0.00 43 1006.7
20260830074534 58 43 0.0 1.0 0.00 0.00 0.00 42 1006.7
20260830073040 59 43 0.0 3.0 0.00 0.00 0.00 41 1006.6
20260830071533 58 43 0.0 6.0 0.00 0.00 0.00 42 1006.6
20260830070028 58 53 0.0 0.0 0.00 0.00 0.00 42 1006.6
20260830064528 58 53 0.0 0.0 0.00 0.00 0.00 42 1006.6
20260830063027 59 53 0.0 0.0 0.00 0.00 0.00 42 1006.7
20260830061528 59 53 0.0 3.0 0.00 0.00 0.00 42 1006.6
20260830060026 59 53 0.0 0.0 0.00 0.00 0.00 40 1006.7
20260830054525 59 53 2.0 5.0 0.00 0.00 0.00 39 1006.7
20260830053024 60 53 0.0 2.0 0.00 0.00 0.00 39 1006.6
20260830051527 60 53 0.0 3.0 0.00 0.00 0.00 37 1006.7
20260830050024 61 53 0.0 3.0 0.00 0.00 0.00 36 1006.6
20260830044523 62 53 0.0 4.0 0.00 0.00 0.00 34 1006.6
20260830043022 65 55 1.0 5.0 0.00 0.00 0.00 33 1006.5
20260830041523 65 41 0.0 4.0 0.00 0.00 0.00 32 1006.2
20260830040030 65 39 0.0 0.0 0.00 0.00 0.00 34 1006.4
20260830034521 66 39 0.0 2.0 0.00 0.00 0.00 35 1006.1
20260830033022 67 39 0.0 0.0 0.00 0.00 0.00 35 1005.9
20260830031520 68 39 0.0 0.0 0.00 0.00 0.00 33 1005.7
20260830030022 69 39 0.0 8.0 0.00 0.00 0.00 31 1005.6
20260830024521 70 39 1.0 8.0 0.00 0.00 0.00 30 1005.6
20260830023049 71 38 0.0 6.0 0.00 0.00 0.00 30 1005.4
20260830021518 72 38 0.0 6.0 0.00 0.00 0.00 28 1005.5
20260830020017 73 38 1.0 9.0 0.00 0.00 0.00 27 1005.5
20260830014531 73 49 0.0 12.0 0.00 0.00 0.00 25 1005.5